Hourly Data Report for October 14, 2013

All times are specified in Local Standard Time (LST). Add 1 hour to adjust for Daylight Saving Time where and when it is observed.

RANKIN INLET A
NUNAVUT

62°48'38.000" N
92°06'53.000" W
32.30 m
2303405
71083
YRT

Download Data

Hourly Data (October 2013)
Hourly Data Report for October 14, 2013
Temp Definition
°C
Dew Point Temp Definition
°C
Rel Hum Definition
%
Wind Dir Definition
10's deg

Wind Spd Definition
km/h
Visibility Definition
km
Stn Press Definition
kPa
Hmdx Definition


Wind Chill Definition


Weather Definition


TIME
00:00 Legend Double Dagger -0.6 -1.3 95 34 58 2.4 99.83   -9 Snow Showers
01:00 Legend Double Dagger -0.6 -1.3 95 34 57 2.4 99.86   -9 Snow Showers
02:00 Legend Double Dagger -0.5 -1.4 94 34 57 3.2 99.88   -9 Snow Showers
03:00 Legend Double Dagger -0.7 -1.6 94 34 57 3.2 99.86   -10 Snow Showers,Blowing Snow
04:00 Legend Double Dagger -0.8 -1.5 95 34 54 3.2 99.94   -10 Snow Showers,Blowing Snow
05:00 Legend Double Dagger -0.8 -1.5 95 33 56 3.2 99.95   -10 Snow Showers,Blowing Snow
06:00 Legend Double Dagger -0.8 -1.7 94 33 59 2.4 99.97   -10 Snow Showers,Blowing Snow
07:00 Legend Double Dagger -1.0 -1.8 94 33 60 1.2 99.95   -10 Snow Showers,Blowing Snow
08:00 Legend Double Dagger -0.9 -2.2 91 33 59 1.6 99.97   -10 Snow Showers,Blowing Snow
09:00 Legend Double Dagger -0.9 -2.3 90 33 60 4.0 100.01   -10 Snow Showers
10:00 Legend Double Dagger -0.8 -2.4 89 33 60 4.8 100.02   -10 Snow Showers,Blowing Snow
11:00 Legend Double Dagger -0.8 -2.5 88 33 64 9.7 100.04   -10 Snow Showers,Blowing Snow
12:00 Legend Double Dagger -0.4 -2.6 85 33 59 9.7 100.11   -9 Blowing Snow
13:00 Legend Double Dagger -0.1 -2.5 84 33 58 12.9 100.18   -9 Blowing Snow
14:00 Legend Double Dagger 0.1 -2.5 83 33 57 12.9 100.24     Blowing Snow
15:00 Legend Double Dagger 0.0 -2.7 82 33 54 19.3 100.30   -8 Mostly Cloudy
16:00 Legend Double Dagger -0.4 -2.3 87 33 53 19.3 100.36   -9 LegendNANA
17:00 Legend Double Dagger -0.5 -2.7 85 32 52 16.1 100.39   -9 Snow Showers
18:00 Legend Double Dagger -0.8 -2.5 88 32 48 19.3 100.39   -9 Snow Showers
19:00 Legend Double Dagger -0.5 -2.7 85 32 51 24.1 100.37   -9 Snow Showers
20:00 Legend Double Dagger -0.7 -2.9 85 32 48 24.1 100.35   -9 Snow Showers
21:00 Legend Double Dagger -0.9 -2.8 87 32 47 24.1 100.33   -9 Snow Showers
22:00 Legend Double Dagger -0.9 -3.0 86 33 53 24.1 100.32   -10 Snow Showers
23:00 Legend Double Dagger -1.0 -2.7 88 32 51 24.1 100.33   -10 Snow Showers

Notes on Data Quality.

Legend

  • E = Estimated
  • M = Missing
  • NA = Not Available
  • ‡ = Partner data that is not subject to review by the National Climate Archives
Date modified: